Location: Dampvalley
(47.9094°N, 6.1967°E)
Time: 06:22:16
(UTC+00:00)

FENGYUN 3A - Pass Details

Date: 05 March 2021
Orbit: 823 x 836 km, 98.4° (Epoch: 18 April)

Event Time Altitude Azimuth Distance (km) Brightness Sun altitude
Rises 04:38:12 0° 9° (N) 3,399 7.1 -15.9°
Reaches altitude 10° 04:40:38 10° 5° (N) 2,461 6.3 -15.5°
Maximum altitude 04:45:52 49° 292° (WNW) 1,070 3.9 -14.6°
Drops below altitude 10° 04:51:04 10° 219° (SW) 2,443 5.7 -13.7°
Enters shadow 04:51:50 - 216° (SW) 2,740 6.0 -13.6°
